Stations météo

réclame
Mon MeteoGroup
Landsberg, Allemagne (10857): Température de l'air & dewpoint: 05.12.2017 03:00:00 - 11.12.2017 03:00:00 (CET)Landsberg, Allemagne (10857): Vitesse du vent & gusts: 05.12.2017 03:00:00 - 11.12.2017 03:00:00 (CET)Landsberg, Allemagne (10857): Direction du vent: 05.12.2017 03:00:00 - 11.12.2017 03:00:00 (CET)Landsberg, Allemagne (10857): reduced air pressure: 05.12.2017 03:00:00 - 11.12.2017 03:00:00 (CET)Landsberg, Allemagne (10857): visibility: 05.12.2017 03:00:00 - 11.12.2017 03:00:00 (CET)
Date & Time tt [°C] td [°C] ff [km/h] ff [knt] fx [km/h] fx [knt] dd ppp [hPa] vv [km]
11.12.2017 03:00:00 2,9 1,2 11 6 - - S 991,6 15
11.12.2017 02:00:00 2,1 1,2 7 4 - - N 991,2 15
11.12.2017 01:00:00 1,9 0,9 7 4 - - SSE 990,9 20
11.12.2017 00:00:00 3,3 0,9 14 8 - - SW 991,1 20
10.12.2017 23:00:00 3,4 1,0 25 14 - - S 991,5 15
10.12.2017 22:00:00 4,2 1,1 25 14 - - SW 992,5 15
10.12.2017 21:00:00 4,1 1,0 36 19 68 37 SSW 992,9 3,8
10.12.2017 20:00:00 4,0 0,7 54 29 79 43 SSW 992,8 4,0
10.12.2017 19:00:00 4,3 0,6 58 31 - - SSW 991,8 3,9
10.12.2017 18:00:00 4,8 0,8 54 29 76 41 SSW 991,6 3,6
10.12.2017 17:00:00 2,1 1,3 25 14 - - SSW 991,8 3,8
10.12.2017 16:00:00 -1,8 -2,4 7 4 - - SSW 992,1 2,7
10.12.2017 15:00:00 -2,8 -3,6 7 4 - - S 991,5 2,9
10.12.2017 14:00:00 -3,5 -4,3 11 6 - - SE 992,6 1,0
10.12.2017 13:00:00 -4,3 -5,8 11 6 - - ESE 995,6 0,6
10.12.2017 12:00:00 -2,4 -12,6 14 8 - - ESE 997,7 4,0
10.12.2017 11:00:00 -2,6 -12,4 14 8 - - SE 1000,6 4,2
10.12.2017 10:00:00 -3,7 -12,4 18 10 - - ESE 1003,0 4,1
10.12.2017 09:00:00 -5,9 -11,9 11 6 - - SE 1006,0 4,0
10.12.2017 08:00:00 -6,2 -11,5 22 12 - - SSE 1008,5 4,1
10.12.2017 07:00:00 -6,4 -11,0 14 8 - - S 1010,5 4,0
10.12.2017 06:00:00 -5,8 -9,5 14 8 - - S 1011,5 4,0
10.12.2017 05:00:00 -4,9 -8,3 14 8 - - S 1012,4 3,9
10.12.2017 04:00:00 -4,5 -8,1 14 8 - - S 1013,7 4,0
10.12.2017 03:00:00 -5,1 -7,8 11 6 - - S 1015,3 3,9
10.12.2017 02:00:00 -4,5 -7,9 11 6 - - S 1015,8 3,9
10.12.2017 01:00:00 -4,2 -8,4 11 6 - - SW 1016,6 3,9
10.12.2017 00:00:00 -4,4 -8,5 14 8 - - SW 1017,6 4,0
09.12.2017 23:00:00 -4,4 -8,4 11 6 - - SW 1018,4 3,9
09.12.2017 22:00:00 -4,0 -8,3 22 12 - - SW 1018,9 3,9
09.12.2017 21:00:00 -3,6 -7,4 22 12 - - SW 1019,0 3,9
09.12.2017 20:00:00 -3,3 -6,7 25 14 - - SW 1019,1 3,9
09.12.2017 19:00:00 -3,6 -7,0 22 12 - - SW 1019,2 3,9
09.12.2017 18:00:00 -3,3 -6,9 18 10 - - SW 1019,2 3,9
09.12.2017 17:00:00 -2,9 -6,2 25 14 - - SW 1019,0 3,9
09.12.2017 16:00:00 -2,4 -6,8 32 18 - - WSW 1018,8 4,0
09.12.2017 15:00:00 -1,6 -8,3 36 19 50 27 WSW 1018,4 4,0
09.12.2017 14:00:00 -2,0 -8,8 29 16 47 25 WSW 1018,7 4,2
09.12.2017 13:00:00 -2,0 -7,3 29 16 - - W 1018,8 3,9
09.12.2017 12:00:00 -2,2 -7,3 32 18 50 27 WSW 1018,9 4,1
09.12.2017 11:00:00 -2,4 -7,1 29 16 - - WSW 1019,0 4,2
09.12.2017 10:00:00 -2,8 -7,0 29 16 - - WSW 1018,6 4,1
09.12.2017 09:00:00 -3,2 -6,4 25 14 - - WSW 1018,2 4,0
09.12.2017 08:00:00 -3,7 -6,4 22 12 - - SW 1017,7 4,0
09.12.2017 07:00:00 -3,8 -6,3 18 10 - - SW 1017,3 20
09.12.2017 06:00:00 -3,4 -6,6 18 10 - - WSW 1017,2 20
09.12.2017 05:00:00 -3,3 -5,5 18 10 - - W 1016,7 20
09.12.2017 04:00:00 -3,0 -4,6 11 6 - - SW 1016,7 20
09.12.2017 03:00:00 -3,4 -4,7 14 8 - - WSW 1016,4 20
09.12.2017 02:00:00 -2,7 -4,1 14 8 - - WSW 1015,2 20
09.12.2017 01:00:00 -2,9 -3,7 11 6 - - WNW 1015,1 8
09.12.2017 00:00:00 -1,4 -3,2 11 6 - - W 1015,0 3,0
08.12.2017 23:00:00 -1,3 -3,7 25 14 - - WSW 1014,5 20
08.12.2017 22:00:00 -1,3 -3,5 18 10 - - SW 1015,4 20
08.12.2017 21:00:00 -1,0 -1,9 18 10 - - SW 1015,9 20
08.12.2017 20:00:00 -0,1 -2,6 22 12 - - WSW 1015,3 12
08.12.2017 19:00:00 -0,1 -1,7 18 10 - - WSW 1015,2 15
08.12.2017 18:00:00 -0,2 -1,3 18 10 - - WSW 1015,0 15
08.12.2017 17:00:00 -0,3 -0,8 21 11 58 31 WSW 1015,1 5
08.12.2017 16:00:00 1,5 -0,3 29 16 - - WSW 1013,8 0,6
08.12.2017 15:00:00 1,8 0,4 16 9 - - SW 1013,6 8
08.12.2017 14:00:00 1,5 0,6 14 8 - - SW 1013,6 15
08.12.2017 13:00:00 0,6 0,5 14 8 - - WSW 1013,9 4,5
08.12.2017 12:00:00 1,2 1,1 15 8 - - W 1013,4 6
08.12.2017 11:00:00 1,0 0,6 18 10 - - W 1014,1 2,5
08.12.2017 10:00:00 3,2 1,7 25 14 - - SW 1012,8 15
08.12.2017 09:00:00 3,2 1,7 29 16 61 33 SW 1012,9 15
08.12.2017 08:00:00 3,6 1,8 36 19 54 29 SW 1012,8 15
08.12.2017 07:00:00 3,7 2,1 29 16 - - WSW 1013,0 20
08.12.2017 06:00:00 4,0 2,2 32 18 - - WSW 1012,7 20
08.12.2017 05:00:00 5,1 1,2 32 18 54 29 WSW 1012,3 30
08.12.2017 04:00:00 5,9 0,0 40 21 - - WSW 1012,9 30
08.12.2017 03:00:00 7,7 -4,5 40 21 58 31 WSW 1012,6 30
08.12.2017 02:00:00 3,9 -4,1 14 8 - - SSW 1013,8 20
08.12.2017 01:00:00 3,2 -4,3 18 10 - - S 1014,7 20
08.12.2017 00:00:00 2,2 -3,8 18 10 - - S 1015,8 20
07.12.2017 23:00:00 3,5 -4,5 14 8 - - S 1016,7 20
07.12.2017 22:00:00 5,7 -4,2 25 14 - - SW 1017,2 20
07.12.2017 21:00:00 5,7 -4,2 22 12 - - SW 1018,4 20
07.12.2017 20:00:00 3,8 -4,2 22 12 - - SSW 1019,7 20
07.12.2017 19:00:00 3,9 -4,8 22 12 - - SSW 1020,1 20
07.12.2017 18:00:00 4,5 -5,0 22 12 - - SSW 1020,3 20
07.12.2017 17:00:00 4,8 -4,9 18 10 - - SSW 1021,0 75
07.12.2017 16:00:00 6,6 -4,2 14 8 - - SW 1021,4 75
07.12.2017 15:00:00 7,8 -5,2 25 14 47 25 SW 1021,9 75
07.12.2017 14:00:00 8,0 -4,5 18 10 - - WSW 1022,5 75
07.12.2017 13:00:00 7,7 -4,0 18 10 - - SW 1023,3 75
07.12.2017 12:00:00 6,1 -3,2 18 10 - - SW 1024,5 75
07.12.2017 11:00:00 4,6 -3,5 14 8 - - SW 1026,0 75
07.12.2017 10:00:00 1,4 -3,0 14 8 - - SW 1027,1 75
07.12.2017 09:00:00 -2,3 -2,4 14 8 - - SSW 1028,4 75
07.12.2017 08:00:00 -5,1 -5,4 11 6 - - S 1029,4 75
07.12.2017 07:00:00 -4,8 -5,0 7 4 - - SE 1029,8 20
07.12.2017 06:00:00 -4,4 -4,6 7 4 - - S 1030,2 0,3
07.12.2017 05:00:00 -3,5 -3,7 7 4 - - S 1030,3 0,3
07.12.2017 04:00:00 -3,2 -3,3 11 6 - - S 1030,9 0,3
07.12.2017 03:00:00 -2,7 -2,8 7 4 - - SW 1031,3 0,3
07.12.2017 02:00:00 -2,3 -2,4 7 4 - - WSW 1031,8 0,8
07.12.2017 01:00:00 -1,7 -1,9 7 4 - - N 1032,0 3,0
07.12.2017 00:00:00 -1,8 -2,1 11 6 - - SSW 1032,9 5
06.12.2017 23:00:00 -1,5 -2,3 7 4 - - SSW 1033,3 5
06.12.2017 22:00:00 -1,4 -2,4 7 4 - - WSW 1033,8 6
06.12.2017 21:00:00 -1,3 -2,3 7 4 - - WSW 1034,2 6
06.12.2017 20:00:00 -1,0 -2,2 7 4 - - WSW 1034,6 7
06.12.2017 19:00:00 -0,7 -1,8 7 4 - - N 1034,6 7
06.12.2017 18:00:00 -0,6 -2,0 7 4 - - W 1035,1 7
06.12.2017 17:00:00 -0,5 -1,9 9 5 - - W 1035,2 7
06.12.2017 16:00:00 -0,2 -1,7 14 8 - - W 1035,2 7
06.12.2017 15:00:00 -0,2 -1,9 11 6 - - W 1035,3 8
06.12.2017 14:00:00 -0,1 -1,8 14 8 - - W 1036,0 8
06.12.2017 13:00:00 -0,1 -1,7 18 10 - - W 1036,2 8
06.12.2017 12:00:00 -0,3 -2,1 14 8 - - W 1036,8 8
06.12.2017 11:00:00 -0,2 -1,9 11 6 - - WSW 1037,2 8
06.12.2017 10:00:00 -0,2 -1,9 14 8 - - WSW 1037,3 6
06.12.2017 09:00:00 -0,2 -1,9 11 6 - - WSW 1037,1 6
06.12.2017 08:00:00 -0,1 -2,0 14 8 - - WSW 1037,0 8
06.12.2017 07:00:00 -0,2 -1,6 18 10 - - WSW 1037,0 8
06.12.2017 06:00:00 -0,6 -1,5 7 4 - - SW 1037,2 8
06.12.2017 05:00:00 -0,8 -1,5 14 8 - - SW 1037,5 8
06.12.2017 04:00:00 -1,2 -1,4 14 8 - - SSW 1037,7 5
06.12.2017 03:00:00 -1,7 -1,8 15 8 - - SW 1038,6 5
06.12.2017 02:00:00 -2,3 -2,8 11 6 - - SSW 1038,5 8
06.12.2017 01:00:00 -1,7 -2,9 11 6 - - SW 1038,5 15
06.12.2017 00:00:00 -1,3 -2,7 14 8 - - SSW 1038,4 15
05.12.2017 23:00:00 -0,8 -2,4 14 8 - - SW 1038,4 15
05.12.2017 22:00:00 -0,6 -2,4 11 6 - - SW 1038,6 15
05.12.2017 21:00:00 -0,6 -2,2 11 6 - - SW 1038,6 20
05.12.2017 20:00:00 0,1 -2,0 14 8 - - WSW 1038,2 20
05.12.2017 19:00:00 0,7 -1,9 14 8 - - SW 1038,0 20
05.12.2017 18:00:00 1,4 -1,6 14 8 - - WSW 1038,0 20
05.12.2017 17:00:00 2,4 -1,7 21 11 - - W 1037,5 10
05.12.2017 16:00:00 2,7 -1,6 18 10 - - WSW 1037,3 20
05.12.2017 15:00:00 2,8 -1,6 22 12 - - SW 1037,0 20
05.12.2017 14:00:00 2,8 -1,5 22 12 - - WSW 1037,4 20
05.12.2017 13:00:00 2,8 -1,2 18 10 - - WSW 1037,8 20
05.12.2017 12:00:00 2,4 -0,9 18 10 - - SW 1037,7 18
05.12.2017 11:00:00 3,0 -1,0 18 10 - - SW 1038,1 15
05.12.2017 10:00:00 1,1 -0,8 14 8 - - SW 1038,5 15
05.12.2017 09:00:00 0,7 -0,7 14 8 - - SW 1038,3 12
05.12.2017 08:00:00 0,3 -0,7 14 8 - - SW 1037,9 12
05.12.2017 07:00:00 0,8 -0,4 14 8 - - SW 1037,4 20
05.12.2017 06:00:00 1,0 -0,3 14 8 - - SW 1037,1 20
05.12.2017 05:00:00 1,2 -0,1 18 10 - - WSW 1037,0 20
05.12.2017 04:00:00 1,3 -0,1 18 10 - - WSW 1036,9 15
05.12.2017 03:00:00 1,3 0,0 14 8 - - WSW 1036,8 10

tt = Température de l'air
td = dewpoint
ff = Vitesse du vent
fx = gusts
dd = Direction du vent
ppp = reduced air pressure
vv = visibility

stations d'obs. à proximité